Home   Weather   Guelph   Past weeks

Flag for Canada Past Weather in Guelph, Ontario, Canada — Yesterday and Last 2 Weeks

Now
73 °F

Sunny.


Feels Like: 76 °F
Forecast: 55 / 83 °F
Wind: 6 mph from Southwest

Location: Waterloo Well

Current Time: Aug 30, 2016 at 11:09:15 AM

Latest Report: Aug 30, 2016 at 10:00 AM


Visibility: 9 mi

Pressure: 30.17 "Hg

Humidity: 61%

Dew Point: 59 °F

Location of GuelphLocation

Past Weather in Guelph — Graph

°F

Guelph Temperature Yesterday

Maximum temperature yesterday: 79 °F (at 3:46 PM)
Minimum temperature yesterday: 57 °F (at 5:00 AM)
Average temperature yesterday: 68 °F

High & Low Weather Summary for the Past Weeks

 TemperatureHumidityPressure
High86 °F (Aug 20, 3:00 PM)100% (Aug 17, 3:00 AM)30.28 "Hg (Aug 17, 3:00 AM)
Low50 °F (Aug 22, 7:00 AM)44% (Aug 22, 3:00 PM)29.58 "Hg (Aug 21, 3:00 AM)
Average69 °F79%30.05 "Hg
* Reported Aug 15 10:00 AM — Aug 30 10:00 AM, Guelph, Weather by CustomWeather, © 2016

Note: Actual official high and low records may vary slightly from our data, if they occured in-between our weather recording intervals... More about our weather records

Advertising

Guelph Weather History for the Previous 24 Hours

Scroll right to see more
 ConditionsComfort  
Time TempWeatherWind HumidityBarometerVisibility
10:00 AM
Tue, Aug 30
73 °FSunny.6 mph61%30.17 "Hg9 mi
9:00 AM66 °FSunny.2 mph83%30.18 "Hg9 mi
8:00 AM59 °FSunny.No wind94%30.19 "Hg9 mi
7:00 AM55 °FFog.No wind94%30.19 "Hg1 mi
6:58 AM54 °FFog.No wind100%30.18 "Hg1 mi
6:00 AM55 °FFog.2 mph94%30.19 "Hg0 mi
5:47 AM55 °FFog.No wind94%30.18 "Hg1 mi
5:04 AM55 °FFog.2 mph94%30.19 "Hg2 mi
5:00 AM54 °FFog.2 mph100%30.19 "Hg3 mi
4:00 AM55 °FFog.No wind94%30.19 "Hg1 mi
3:00 AM55 °FFog.2 mph100%30.20 "Hg5 mi
2:00 AM57 °FClear.3 mph94%30.20 "Hg7 mi
1:00 AM57 °FFog.No wind94%30.20 "Hg6 mi
12:51 AM57 °FFog.2 mph100%30.20 "Hg6 mi
12:00 AM59 °FClear.3 mph94%30.21 "Hg9 mi
11:00 PM
Mon, Aug 29
63 °FClear.2 mph83%30.22 "Hg9 mi
10:00 PM63 °FClear.No wind83%30.22 "Hg9 mi
9:00 PM66 °FClear.6 mph78%30.22 "Hg9 mi
8:00 PM70 °FSunny.6 mph69%30.20 "Hg9 mi
7:00 PM75 °FSunny.6 mph57%30.20 "Hg9 mi
6:00 PM77 °FPassing clouds.3 mph54%30.21 "Hg8 mi
5:00 PM79 °FPassing clouds.2 mph45%30.22 "Hg9 mi
4:00 PM77 °FSunny.6 mph51%30.23 "Hg9 mi
3:46 PM79 °FHaze.2 mph48%30.23 "Hg6 mi
3:00 PM77 °FSunny.5 mph51%30.25 "Hg8 mi
2:50 PM77 °FSunny.2 mph51%30.25 "Hg4 mi
2:00 PM77 °FSunny.7 mph51%30.26 "Hg5 mi
1:57 PM77 °FSunny.3 mph54%30.26 "Hg5 mi
1:01 PM75 °FHaze.9 mph57%30.27 "Hg5 mi
12:04 PM75 °FSunny.6 mph57%30.27 "Hg6 mi
11:54 AM73 °FSunny.7 mph57%30.28 "Hg5 mi
11:03 AM72 °FSunny.8 mph69%30.28 "Hg5 mi
11:00 AM72 °FSunny.8 mph69%30.28 "Hg6 mi
Weather by CustomWeather, © 2016

See weather overviewHow to use our weather pages